timestamp,surface_pressure_avg,surface_temp_avg,battery_voltage,lat,long
2019-03-05 00:00:00+00:00,340.1946,-1.0,12.89,47.84626,-54.09684
2019-03-05 00:10:00+00:00,322.5096,-1.04,12.81,47.84626,-54.09684
2019-03-05 00:20:00+00:00,331.4481,-1.03,12.97,47.84626,-54.09684
2019-03-05 00:30:00+00:00,349.5862,-1.05,12.97,47.84626,-54.09684
2019-03-05 00:40:00+00:00,340.2363,-1.1,12.97,47.84626,-54.09684
2019-03-05 00:50:00+00:00,325.673,-1.1,12.97,47.84626,-54.09684
2019-03-05 01:00:00+00:00,326.1913,-1.1,12.89,47.84626,-54.09684
2019-03-05 01:10:00+00:00,325.4446,-1.1,12.81,47.84626,-54.09684
2019-03-05 01:20:00+00:00,312.1163,-1.1,12.89,47.84626,-54.09684
2019-03-05 01:30:00+00:00,294.1063,-1.1,12.89,47.84626,-54.09684
2019-03-05 01:40:00+00:00,287.793,-1.1,12.97,47.84626,-54.09684
2019-03-05 01:50:00+00:00,288.2448,-1.1,12.97,47.84626,-54.09684
2019-03-05 02:00:00+00:00,284.723,-1.1,12.89,47.84626,-54.09684
2019-03-05 02:10:00+00:00,286.4197,-1.1,12.81,47.84626,-54.09684
2019-03-05 02:20:00+00:00,297.6264,-1.1,12.89,47.84626,-54.09684
2019-03-05 02:30:00+00:00,303.4897,-1.1,12.89,47.84626,-54.09684
2019-03-05 02:40:00+00:00,286.988,-1.1,12.89,47.84626,-54.09684
2019-03-05 02:50:00+00:00,275.298,-1.1,12.89,47.84626,-54.09684
2019-03-05 03:00:00+00:00,282.8481,-1.15,12.81,47.84626,-54.09684
2019-03-05 03:10:00+00:00,284.908,-1.12,12.73,47.84626,-54.09684
2019-03-05 03:20:00+00:00,266.0364,-1.15,12.89,47.84626,-54.09684
2019-03-05 03:30:00+00:00,247.6181,-1.16,12.89,47.84626,-54.09684
2019-03-05 03:40:00+00:00,253.0648,-1.16,12.89,47.84626,-54.09684
2019-03-05 03:50:00+00:00,255.7381,-1.16,12.89,47.84626,-54.09684
2019-03-05 04:00:00+00:00,247.868,-1.19,12.81,47.84626,-54.09684
2019-03-05 04:10:00+00:00,243.8798,-1.18,12.73,47.84626,-54.09684
2019-03-05 04:20:00+00:00,243.0948,-1.15,12.81,47.84626,-54.09684
2019-03-05 04:30:00+00:00,237.1814,-1.2,12.81,47.84626,-54.09684
2019-03-05 04:40:00+00:00,238.7881,-1.2,12.89,47.84626,-54.09684
2019-03-05 04:50:00+00:00,233.1865,-1.2,12.89,47.84626,-54.09684
2019-03-05 05:00:00+00:00,223.4548,-1.2,12.81,47.84626,-54.09684
2019-03-05 05:10:00+00:00,217.6797,-1.19,12.73,47.84626,-54.09684
2019-03-05 05:20:00+00:00,218.9581,-1.15,12.81,47.84626,-54.09684
2019-03-05 05:30:00+00:00,218.3264,-1.11,12.81,47.84626,-54.09684
2019-03-05 05:40:00+00:00,224.3497,-1.1,12.81,47.84626,-54.09684
2019-03-05 05:50:00+00:00,235.5981,-1.1,12.81,47.84626,-54.09684
2019-03-05 06:00:00+00:00,239.3814,-1.1,12.81,47.84626,-54.09684
2019-03-05 06:10:00+00:00,245.5531,-1.1,12.73,47.84626,-54.09684
2019-03-05 06:20:00+00:00,251.5264,-1.1,12.81,47.84626,-54.09684
2019-03-05 06:30:00+00:00,252.6064,-1.1,12.81,47.84626,-54.09684
2019-03-05 06:40:00+00:00,257.0914,-1.1,12.81,47.84626,-54.09684
2019-03-05 06:50:00+00:00,263.7598,-1.1,12.81,47.84626,-54.09684
2019-03-05 07:00:00+00:00,264.2431,-1.1,12.73,47.84626,-54.09684
2019-03-05 07:10:00+00:00,261.068,-1.1,12.73,47.84626,-54.09684
2019-03-05 07:20:00+00:00,263.8147,-1.1,12.81,47.84626,-54.09684
2019-03-05 07:30:00+00:00,268.7914,-1.1,12.81,47.84626,-54.09684
2019-03-05 07:40:00+00:00,269.6681,-1.1,12.81,47.84626,-54.09684
2019-03-05 07:50:00+00:00,271.8914,-1.1,12.81,47.84626,-54.09684
2019-03-05 08:00:00+00:00,278.4181,-1.1,12.73,47.84626,-54.09684
2019-03-05 08:10:00+00:00,286.5863,-1.1,12.65,47.84626,-54.09684
2019-03-05 08:20:00+00:00,290.1614,-1.1,12.81,47.84626,-54.09684
2019-03-05 08:30:00+00:00,292.7697,-1.1,12.81,47.84626,-54.09684
2019-03-05 08:40:00+00:00,304.6047,-1.1,12.81,47.84626,-54.09684
2019-03-05 08:50:00+00:00,314.1047,-1.1,12.81,47.84626,-54.09684
2019-03-05 09:00:00+00:00,310.7546,-1.1,12.73,47.84626,-54.09684
2019-03-05 09:10:00+00:00,308.6497,-1.1,12.65,47.84626,-54.09684
2019-03-05 09:20:00+00:00,317.033,-1.1,12.81,47.84626,-54.09684
2019-03-05 09:30:00+00:00,324.683,-1.1,12.81,47.84626,-54.09684
2019-03-05 09:40:00+00:00,319.6363,-1.1,12.81,47.84626,-54.09684
2019-03-05 09:50:00+00:00,321.9613,-1.1,12.81,47.84626,-54.09684
2019-03-05 10:00:00+00:00,332.9797,-1.1,12.73,47.84626,-54.09684
2019-03-05 10:10:00+00:00,338.6813,-1.1,12.65,47.84626,-54.09684
2019-03-05 10:20:00+00:00,330.138,-1.1,12.81,47.84626,-54.09684
2019-03-05 10:30:00+00:00,322.2097,-1.1,12.81,47.84626,-54.09684
2019-03-05 10:40:00+00:00,332.1296,-1.1,12.81,47.84626,-54.09684
2019-03-05 10:50:00+00:00,344.8763,-1.1,12.81,47.84626,-54.09684
2019-03-05 11:00:00+00:00,343.4713,-1.1,12.73,47.84626,-54.09684
2019-03-05 11:10:00+00:00,339.128,-1.1,12.73,47.84626,-54.09684
2019-03-05 11:20:00+00:00,340.6429,-1.1,12.81,47.84626,-54.09684
2019-03-05 11:30:00+00:00,343.1946,-1.1,12.81,47.84626,-54.09684
2019-03-05 11:40:00+00:00,333.4063,-1.1,12.89,47.84626,-54.09684
2019-03-05 11:50:00+00:00,331.1047,-1.1,12.97,47.84626,-54.09684
2019-03-05 12:00:00+00:00,340.0464,-1.1,12.97,47.84626,-54.09684
2019-03-05 12:10:00+00:00,336.713,-1.1,12.89,47.84626,-54.09684
2019-03-05 12:20:00+00:00,326.003,-1.1,13.05,47.84626,-54.09684
2019-03-05 12:30:00+00:00,326.7596,-1.1,13.13,47.84626,-54.09684
2019-03-05 12:40:00+00:00,326.223,-1.09,13.29,47.84626,-54.09684
2019-03-05 12:50:00+00:00,316.9797,-1.09,13.44,47.84626,-54.09684
2019-03-05 13:00:00+00:00,309.7996,-1.05,13.53,47.84626,-54.09684
2019-03-05 13:10:00+00:00,317.8747,-1.05,13.53,47.84626,-54.09684
2019-03-05 13:20:00+00:00,322.7513,-1.07,13.6,47.84626,-54.09684
2019-03-05 13:30:00+00:00,313.7664,-1.07,13.68,47.84626,-54.09684
2019-03-05 13:40:00+00:00,302.4581,-1.03,13.84,47.84626,-54.09684
2019-03-05 13:50:00+00:00,297.083,-1.02,13.84,47.84626,-54.09684
2019-03-05 14:00:00+00:00,296.463,-1.02,13.84,47.84626,-54.09684
2019-03-05 14:10:00+00:00,290.428,-1.03,13.76,47.84626,-54.09684
2019-03-05 14:20:00+00:00,281.7797,-1.01,13.84,47.84626,-54.09684
2019-03-05 14:30:00+00:00,270.3014,-1.02,14.0,47.84626,-54.09684
2019-03-05 14:40:00+00:00,263.8597,-1.01,14.08,47.84626,-54.09684
2019-03-05 14:50:00+00:00,260.4781,-1.02,14.16,47.84626,-54.09684
2019-03-05 15:00:00+00:00,254.3347,-1.02,14.32,47.84626,-54.09684
2019-03-05 15:10:00+00:00,240.4314,-1.0,14.32,47.84626,-54.09684
2019-03-05 15:20:00+00:00,226.8414,-1.0,14.88,47.84626,-54.09684
2019-03-05 15:30:00+00:00,218.1064,-1.0,14.72,47.84626,-54.09684
2019-03-05 15:40:00+00:00,210.0615,-1.0,14.88,47.84626,-54.09684
2019-03-05 15:50:00+00:00,199.2798,-1.0,14.8,47.84626,-54.09684
2019-03-05 16:00:00+00:00,192.2348,-1.0,14.64,47.84626,-54.09684
2019-03-05 16:10:00+00:00,193.1098,-1.02,14.64,47.84626,-54.09684
2019-03-05 16:20:00+00:00,188.9514,-1.01,14.8,47.84626,-54.09684
2019-03-05 16:30:00+00:00,179.8565,-1.0,14.72,47.84626,-54.09684
2019-03-05 16:40:00+00:00,180.3581,-1.0,14.88,47.84626,-54.09684
2019-03-05 16:50:00+00:00,181.1098,-1.0,14.72,47.84626,-54.09684
2019-03-05 17:00:00+00:00,170.9815,-1.0,14.64,47.84626,-54.09684
2019-03-05 17:10:00+00:00,169.3981,-1.0,14.72,47.84626,-54.09684
2019-03-05 17:20:00+00:00,178.9748,-1.0,14.72,47.84626,-54.09684
2019-03-05 17:30:00+00:00,182.0199,-1.0,14.72,47.84626,-54.09684
2019-03-05 17:40:00+00:00,179.8148,-1.0,14.96,47.84626,-54.09684
2019-03-05 17:50:00+00:00,182.7798,-1.0,14.72,47.84626,-54.09684
2019-03-05 18:00:00+00:00,189.4215,-1.0,14.72,47.84626,-54.09684
2019-03-05 18:10:00+00:00,192.0414,-1.0,14.72,47.84626,-54.09684
2019-03-05 18:20:00+00:00,193.9498,-1.0,14.88,47.84626,-54.09684
2019-03-05 18:30:00+00:00,199.5031,-1.0,14.8,47.84626,-54.09684
2019-03-05 18:40:00+00:00,201.9331,-1.0,14.72,47.84626,-54.09684
2019-03-05 18:50:00+00:00,201.1481,-0.96,14.72,47.84626,-54.09684
2019-03-05 19:00:00+00:00,206.7647,-0.95,14.64,47.84626,-54.09684
2019-03-05 19:10:00+00:00,215.4581,-0.97,14.56,47.84626,-54.09684
2019-03-05 19:20:00+00:00,217.8098,-0.95,14.64,47.84626,-54.09684
2019-03-05 19:30:00+00:00,221.5131,-0.94,14.56,47.84626,-54.09684
2019-03-05 19:40:00+00:00,232.4264,-0.94,14.56,47.84626,-54.09684
2019-03-05 19:50:00+00:00,237.5814,-0.93,14.48,47.84626,-54.09684
2019-03-05 20:00:00+00:00,238.5331,-0.91,14.4,47.84626,-54.09684
2019-03-05 20:10:00+00:00,247.7798,-0.91,14.24,47.84626,-54.09684
2019-03-05 20:20:00+00:00,256.4948,-0.91,14.32,47.84626,-54.09684
2019-03-05 20:30:00+00:00,259.6947,-0.9,14.32,47.84626,-54.09684
2019-03-05 20:40:00+00:00,264.3031,-0.9,14.24,47.84626,-54.09684
2019-03-05 20:50:00+00:00,271.5548,-0.9,14.24,47.84626,-54.09684
2019-03-05 21:00:00+00:00,276.803,-0.9,14.08,47.84626,-54.09684
2019-03-05 21:10:00+00:00,283.828,-0.9,13.92,47.84626,-54.09684
2019-03-05 21:20:00+00:00,292.978,-0.9,13.84,47.84626,-54.09684
2019-03-05 21:30:00+00:00,297.8113,-0.9,13.76,47.84626,-54.09684
2019-03-05 21:40:00+00:00,305.2713,-0.9,13.68,47.84626,-54.09684
2019-03-05 21:50:00+00:00,315.5463,-0.9,13.68,47.84626,-54.09684
2019-03-05 22:00:00+00:00,318.1414,-0.9,13.53,47.84626,-54.09684
2019-03-05 22:10:00+00:00,316.0297,-0.9,13.37,47.84626,-54.09684
2019-03-05 22:20:00+00:00,323.3696,-0.9,13.37,47.84626,-54.09684
2019-03-05 22:30:00+00:00,331.1114,-0.9,13.29,47.84626,-54.09684
2019-03-05 22:40:00+00:00,331.413,-0.9,13.29,47.84626,-54.09684
2019-03-05 22:50:00+00:00,334.8213,-0.9,13.29,47.84626,-54.09684
2019-03-05 23:00:00+00:00,342.448,-0.9,13.21,47.84626,-54.09684
2019-03-05 23:10:00+00:00,347.4097,-0.9,13.05,47.84626,-54.09684
2019-03-05 23:20:00+00:00,341.098,-0.9,13.05,47.84626,-54.09684
2019-03-05 23:30:00+00:00,345.7747,-0.9,13.05,47.84626,-54.09684
2019-03-05 23:40:00+00:00,356.2213,-0.9,13.05,47.84626,-54.09684
2019-03-05 23:50:00+00:00,354.2079,-0.9,13.05,47.84626,-54.09684
